Location: Cahas Mountain Overlook
(37.0833°N, 80.1000°W)
Time: 21:05:21
(UTC-05:00)

Vanguard 2 Rocket - All Passes

Search period start: 27 January 2022 00:00
Search period end: 06 February 2022 00:00
Orbit: 553 x 3325 km, 32.9° (Epoch: 27 January)

Date Brightness Start Highest point End Pass type
(mag) Time Alt. Az. Time Alt. Az. Time Alt. Az.
27 Jan - 00:18:48 10° SW 00:29:32 46° SE 00:46:19 10° E visible
27 Jan - 02:31:04 10° WSW 02:45:35 74° SSE 03:05:58 10° E visible
27 Jan - 04:46:01 10° W 05:04:05 75° S 05:23:49 10° ESE visible
27 Jan - 07:03:04 10° W 07:22:01 52° SSW 07:38:25 10° SE visible
27 Jan - 09:24:27 10° W 09:37:06 22° SW 09:47:34 10° S daylight
27 Jan - 23:20:17 10° SSW 23:29:07 33° SE 23:42:43 10° E visible
28 Jan - 01:31:08 10° WSW 01:43:42 67° SSE 02:03:06 10° E visible
28 Jan - 03:45:04 10° W 04:01:26 77° S 04:21:55 10° ESE visible
28 Jan - 06:01:04 10° W 06:19:53 61° SSW 06:38:06 10° SE visible
28 Jan - 08:20:03 10° W 08:36:11 32° SW 08:49:43 10° SSE daylight
28 Jan - 22:22:42 10° S 22:29:17 21° SE 22:38:30 10° E night (unlit)
29 Jan - 00:31:42 10° SW 00:42:26 56° SSE 00:59:58 10° E visible
29 Jan - 02:44:35 10° WSW 02:59:01 77° S 03:19:29 10° E visible
29 Jan - 04:59:37 10° W 05:17:25 69° SSW 05:37:02 10° ESE visible
29 Jan - 07:16:58 10° W 07:34:45 42° SW 07:50:39 10° SSE daylight
29 Jan - 09:42:01 10° WSW 09:49:24 13° SW 09:56:05 10° SSW daylight
29 Jan - 21:28:53 10° SE 21:29:52 10° SE 21:30:53 10° ESE night (unlit)
29 Jan - 23:32:47 10° SSW 23:41:49 43° SE 23:56:38 10° E visible
30 Jan - 01:44:32 10° WSW 01:57:02 73° SSE 02:16:37 10° E visible
30 Jan - 03:58:40 10° W 04:14:53 74° S 04:35:17 10° ESE visible
30 Jan - 06:14:46 10° W 06:32:51 52° SSW 06:50:41 10° SE visible
30 Jan - 08:35:14 10° W 08:48:35 22° SW 09:00:25 10° S daylight
30 Jan - 22:34:29 10° SSW 22:41:47 30° SE 22:53:07 10° E night (unlit)
31 Jan - 00:44:55 10° WSW 00:55:36 65° SSE 01:13:30 10° E visible
31 Jan - 02:58:10 10° W 03:12:31 77° S 03:32:56 10° ESE visible
31 Jan - 05:13:16 10° W 05:30:37 60° SSW 05:49:56 10° SE visible
31 Jan - 07:31:18 10° W 07:47:21 32° SW 08:02:12 10° SSE daylight
31 Jan - 21:37:14 10° S 21:42:16 18° SE 21:49:02 10° E night (unlit)
31 Jan - 23:45:44 10° SW 23:54:46 54° SSE 00:10:17 10° E visible
01 Feb - 01:58:04 10° W 02:10:29 76° S 02:30:06 10° E visible
01 Feb - 04:12:18 10° W 04:28:14 68° SSW 04:48:25 10° ESE visible
01 Feb - 06:28:43 10° W 06:45:40 41° SW 07:02:46 10° SSE visible
01 Feb - 08:52:39 10° WSW 09:01:00 14° SW 09:08:52 10° SSW daylight
01 Feb - 22:47:02 10° SSW 22:54:32 40° SE 23:07:06 10° E night (unlit)
02 Feb - 00:58:22 10° WSW 01:08:57 72° S 01:27:00 10° E visible
02 Feb - 03:11:48 10° W 03:25:59 73° S 03:46:14 10° ESE visible
02 Feb - 05:27:00 10° W 05:43:39 51° SSW 06:02:24 10° SE visible
02 Feb - 07:46:33 10° W 07:59:53 23° SW 08:12:40 10° S daylight
02 Feb - 21:48:55 10° SSW 21:54:50 26° SE 22:03:49 10° E night (unlit)
02 Feb - 23:58:59 10° WSW 00:07:58 63° SSE 00:23:50 10° E visible
03 Feb - 02:11:41 10° W 02:24:00 75° S 02:43:31 10° ESE visible
03 Feb - 04:25:58 10° W 04:41:29 59° SSW 05:01:12 10° SE visible
03 Feb - 06:43:07 10° W 06:58:24 31° SW 07:14:05 10° SSE visible
03 Feb - 20:52:06 10° SSE 20:55:33 14° SE 20:59:51 10° ESE night (unlit)
03 Feb - 23:00:01 10° SW 23:07:33 51° SSE 23:20:46 10° E night (unlit)
04 Feb - 01:11:54 10° W 01:22:26 75° S 01:40:28 10° E visible
04 Feb - 03:25:26 10° W 03:39:22 66° SSW 03:59:17 10° ESE visible
04 Feb - 05:41:01 10° W 05:56:36 40° SSW 06:14:17 10° SSE visible
04 Feb - 08:04:03 10° WSW 08:12:29 14° SW 08:20:48 10° SSW daylight
04 Feb - 22:01:27 10° SSW 22:07:39 36° SE 22:17:52 10° E night (unlit)
05 Feb - 00:12:27 10° WSW 00:21:21 70° S 00:37:19 10° E visible
05 Feb - 02:25:18 10° W 02:37:29 71° S 02:56:47 10° ESE visible
05 Feb - 04:39:46 10° W 04:54:38 49° SSW 05:13:31 10° SE visible
05 Feb - 06:58:28 10° W 07:11:07 22° SW 07:24:16 10° S daylight
05 Feb - 21:03:31 10° S 21:08:13 22° SE 21:14:58 10° E night (unlit)
05 Feb - 23:13:18 10° WSW 23:20:47 61° SSE 23:34:19 10° E night (unlit)
